Theta_e
364 363 363 362 361 359 359 359 358 357 355 353 352 350 348 346 344 343 342 343 344 343 343 343 342 342 342 342 342 342 342 342 341 340 340 339 339 338 338 338 337 338
364 365 364 363 361 360 360 359 358 357 356 354 352 350 348 347 345 344 343 344 344 343 343 343 343 343 343 342 342 343 342 342 341 340 340 340 339 339 338 337 337 337
364 365 365 363 362 361 360 359 358 358 356 354 352 350 349 347 346 344 343 344 344 342 343 343 343 343 342 342 343 343 342 342 341 340 340 340 339 339 338 337 337 337
365 365 365 363 362 361 360 359 358 357 355 353 352 350 349 347 346 345 344 344 343 342 342 343 342 342 341 342 342 342 341 342 341 339 340 339 338 338 337 337 337 336
365 365 364 362 362 361 359 358 357 357 356 354 353 350 348 346 345 344 344 344 343 342 342 342 342 341 341 342 342 341 340 340 340 339 339 339 338 337 337 337 337 336
366 365 363 362 362 360 358 358 357 357 355 354 352 349 347 346 344 343 343 344 343 341 341 341 341 340 340 341 341 340 340 338 339 339 339 339 338 337 336 336 337 336
365 364 362 361 361 359 358 358 357 356 355 353 351 348 346 345 343 342 343 344 342 340 340 340 341 340 340 340 340 340 340 339 338 339 339 338 337 337 337 336 336 336
364 363 361 361 360 358 358 357 356 354 354 353 350 347 344 343 343 343 343 343 342 340 340 340 341 341 340 339 339 339 339 339 338 338 338 338 338 338 337 336 336 336
362 361 360 359 358 356 356 356 355 354 354 353 347 344 341 339 341 343 343 344 342 340 340 341 341 342 340 339 340 340 339 338 337 338 338 338 338 338 337 337 336 336
360 360 358 357 356 355 355 356 354 353 354 351 343 341 340 337 337 340 343 345 343 340 341 341 341 342 340 339 340 340 340 338 339 339 339 338 338 337 337 337 337 337
359 358 357 356 356 355 354 355 353 352 352 348 341 338 335 333 333 335 339 342 341 340 340 340 340 341 340 340 340 340 340 339 339 340 339 339 338 338 337 337 337 337
359 358 356 356 355 354 354 353 352 350 345 339 338 335 329 328 330 331 334 335 335 338 340 339 340 340 340 340 340 340 340 340 339 339 340 339 339 338 337 337 337 337
360 358 356 355 353 353 352 352 352 347 335 331 335 335 332 331 331 330 330 330 332 336 338 339 340 341 341 341 340 340 340 341 340 340 339 340 339 338 337 336 336 337
360 356 354 353 352 351 351 352 353 346 333 331 336 336 335 335 334 333 333 334 335 336 336 337 339 341 341 340 340 339 340 341 341 341 339 339 338 338 337 336 335 336
358 355 353 352 351 352 350 352 355 346 334 333 335 334 335 336 336 337 337 337 336 335 334 336 338 340 339 338 340 341 341 341 341 340 339 338 337 337 337 336 335 335
357 355 353 352 351 351 351 352 354 349 341 337 333 332 336 337 337 339 340 340 336 333 333 335 338 340 338 337 337 338 339 341 340 339 339 338 337 337 336 336 335 335
356 354 353 352 351 351 352 353 352 349 345 340 335 335 338 338 338 340 342 341 339 337 337 337 338 339 338 336 333 331 333 337 338 338 339 338 337 337 337 336 335 335
354 354 353 352 352 352 351 352 352 349 346 343 340 338 339 340 340 341 342 342 341 340 340 340 339 339 339 336 330 328 331 333 335 336 338 338 337 336 336 336 335 335
354 353 353 352 353 353 351 351 351 349 347 346 344 341 340 340 337 337 341 343 341 341 340 341 341 340 339 334 329 328 332 333 332 335 336 337 337 337 336 336 336 335
354 354 352 352 353 353 352 352 351 350 348 345 344 343 343 341 335 336 342 342 340 341 341 341 340 339 336 332 327 327 332 334 333 334 336 337 337 337 337 336 336 336
354 353 352 352 352 353 353 352 351 351 348 345 345 345 344 343 340 341 344 343 341 342 342 342 341 339 335 331 326 325 331 334 334 334 336 337 337 338 337 337 337 336
353 352 352 352 352 353 353 352 351 350 346 345 344 343 343 343 343 342 343 343 343 343 342 342 341 339 336 332 327 326 331 335 334 334 336 337 337 337 337 337 337 338
352 352 352 352 352 353 352 351 351 349 346 343 341 340 341 343 342 342 343 343 343 343 342 343 342 341 339 336 331 329 333 335 334 335 337 339 338 338 338 338 339 339
352 351 351 352 352 353 352 352 351 349 346 344 341 341 342 342 341 342 344 343 342 342 342 342 342 342 341 339 336 335 335 335 335 338 340 339 339 338 338 338 338 338
352 351 351 352 352 353 352 351 349 347 346 345 343 341 341 342 341 341 343 343 342 342 343 342 342 341 340 339 338 337 336 335 336 339 339 338 338 338 337 337 338 337
352 351 351 351 352 352 350 349 347 345 344 344 342 339 339 341 341 340 342 343 341 341 341 341 341 342 341 340 339 339 337 335 336 339 339 338 338 336 336 337 337 338
Wind_Speed
22 21 20 20 20 19 17 15 14 14 15 14 13 12 13 13 12 11 11 10 10 10 10 11 10 10 9 8 8 7 6 6 6 5 5 5 5 5 5 5 5 5
23 21 20 19 19 18 17 16 15 14 14 14 13 12 12 12 11 11 11 10 10 10 10 11 10 10 9 8 8 8 7 6 6 5 5 5 5 5 5 6 6 7
23 21 20 19 18 17 17 16 15 15 14 14 13 12 11 11 12 12 11 10 10 10 10 10 10 10 9 8 8 8 8 7 7 6 6 6 6 6 6 6 7 8
23 21 20 18 17 16 16 16 15 14 13 13 13 12 11 11 11 11 11 11 10 10 10 10 10 10 9 9 8 8 8 8 8 7 7 7 7 7 7 7 8 8
23 21 19 18 16 16 17 17 16 14 13 13 12 12 12 12 11 11 11 11 11 11 11 10 10 10 10 9 9 8 8 8 8 7 7 7 7 7 7 7 8 9
21 20 19 18 17 18 18 17 16 15 14 13 13 13 13 12 12 12 12 12 12 12 12 11 11 11 10 9 9 9 8 8 7 7 7 7 7 7 7 7 8 9
21 21 21 19 18 19 18 16 17 18 17 15 14 14 14 14 14 14 14 13 13 12 12 12 11 11 10 10 10 9 9 8 8 8 8 8 7 7 8 8 8 9
23 23 21 20 20 21 20 19 21 22 20 18 17 17 16 16 15 15 15 15 14 13 13 12 12 12 11 10 11 10 10 10 9 9 10 9 9 9 9 9 10 11
26 24 23 21 23 25 24 22 23 23 23 23 21 19 19 19 18 17 16 16 15 14 14 14 13 13 12 12 12 12 11 11 11 11 11 11 11 11 12 11 12 12
26 24 25 25 25 26 24 22 20 20 22 24 22 20 20 20 19 18 17 17 16 15 15 15 15 14 14 13 13 13 13 13 13 12 12 13 13 13 14 14 13 14
29 26 26 25 24 25 25 23 19 18 19 23 24 22 21 21 21 20 20 20 19 18 17 17 16 15 15 15 14 14 14 15 14 14 14 14 15 15 15 15 15 15
29 26 26 26 27 28 27 26 26 26 26 27 29 28 26 25 24 23 23 24 23 21 18 17 17 17 16 16 16 15 15 15 15 15 15 15 16 16 15 15 15 15
26 26 27 30 33 34 31 30 32 32 31 32 33 31 29 27 25 24 25 26 25 24 21 18 17 18 18 17 17 16 16 16 16 16 16 16 16 16 15 15 16 16
24 29 35 37 36 37 36 36 37 36 34 35 33 29 27 26 24 24 24 24 24 24 23 21 18 18 18 18 18 18 17 17 16 16 16 16 16 16 15 15 15 16
24 31 39 40 36 38 40 40 40 40 38 36 34 31 28 25 23 22 22 22 24 25 25 24 20 19 19 20 19 18 17 16 17 16 16 16 16 16 15 15 16 16
26 28 36 39 38 39 42 42 41 40 37 37 36 32 28 26 24 21 20 21 24 26 26 25 22 20 21 22 21 20 17 15 15 15 15 16 16 16 16 16 16 16
27 26 33 40 41 39 41 42 40 36 34 36 36 31 28 27 25 22 20 20 21 22 24 24 23 21 22 24 25 24 21 17 15 15 15 16 16 16 16 16 16 16
28 26 29 37 41 40 38 36 33 29 29 31 32 31 29 26 24 23 21 20 19 20 21 21 22 21 22 24 24 23 22 19 17 16 16 16 16 16 16 16 16 16
27 26 27 31 38 39 32 27 26 25 26 26 27 30 30 28 28 26 22 21 20 20 20 18 17 18 20 22 22 22 20 19 19 19 17 17 17 16 16 17 18 18
26 27 28 29 33 34 28 25 25 25 25 25 25 26 27 27 29 25 21 22 22 20 18 17 16 17 19 20 20 22 22 21 21 21 19 18 18 17 18 18 19 19
25 28 28 27 29 29 25 24 25 24 23 23 21 21 21 22 23 20 18 20 20 18 16 15 16 18 20 19 19 21 22 22 22 21 19 19 18 18 19 20 20 20
25 27 27 26 28 29 25 24 25 25 22 20 17 17 18 18 18 18 18 18 17 15 15 14 15 16 18 18 18 20 21 21 22 21 19 19 19 20 21 20 20 19
25 26 26 26 27 28 27 26 27 25 21 20 19 18 18 18 17 17 18 17 15 14 14 14 14 16 17 18 18 19 19 20 20 19 17 18 19 20 21 20 19 17
25 26 26 25 25 27 27 27 27 25 21 19 20 19 18 17 16 16 16 14 13 12 13 14 15 14 14 16 17 17 17 18 17 15 15 16 17 18 19 19 19 19
24 25 25 24 24 25 25 24 24 22 19 17 18 19 17 15 17 19 16 12 10 10 12 14 14 13 13 15 15 15 15 16 14 14 15 15 15 17 19 18 17 18
23 24 24 22 22 22 22 22 20 18 17 16 17 19 18 16 17 19 15 10 7 6 9 12 13 12 12 13 13 13 13 13 12 13 14 14 15 17 18 17 17 16
Wind_Direction
210 211 212 213 216 220 218 213 211 213 218 221 217 213 211 208 207 205 205 207 208 209 206 202 204 208 210 210 210 211 216 221 224 223 225 230 239 243 242 240 238 243
208 208 207 208 212 212 211 212 211 208 211 215 215 214 209 205 203 203 205 207 209 211 207 204 207 208 208 208 206 210 214 218 223 224 224 229 236 242 245 246 243 243
207 205 202 202 205 204 203 206 207 206 213 220 218 214 207 204 203 203 205 206 210 213 210 209 210 207 208 206 204 210 214 215 219 220 224 232 238 242 245 247 248 247
206 204 202 202 202 200 198 201 203 205 213 221 217 211 206 204 203 203 205 208 213 216 213 211 212 210 208 206 207 213 214 215 218 219 226 233 238 245 250 249 250 252
204 202 201 201 197 196 199 203 204 204 210 216 213 208 205 203 203 205 208 210 213 217 217 213 211 211 211 208 209 217 218 218 218 217 224 233 238 245 251 253 254 255
198 198 198 196 194 198 203 204 204 203 207 211 207 204 203 202 205 208 209 211 215 218 218 215 212 213 213 211 213 219 221 222 218 216 225 236 242 247 251 256 260 262
193 195 195 192 191 199 202 199 202 207 208 207 203 203 203 201 204 208 209 212 215 218 218 216 215 215 214 213 215 218 219 222 222 223 232 240 245 251 254 257 261 264
193 191 189 187 188 199 203 200 206 214 215 209 201 202 206 203 201 206 210 211 212 214 215 215 215 217 216 214 216 219 221 225 227 229 236 243 248 253 255 257 259 260
192 186 183 185 192 204 206 202 207 215 217 214 208 206 211 211 204 204 210 211 210 211 211 212 216 217 217 217 219 222 225 229 233 235 240 246 251 255 258 260 261 261
190 181 183 187 194 204 206 203 205 210 214 219 216 209 211 215 211 207 209 209 208 210 210 212 216 218 219 220 221 225 230 234 238 240 245 251 255 259 261 262 263 262
190 182 184 188 192 200 204 200 198 203 215 223 221 213 212 220 221 217 214 214 215 214 212 213 217 219 221 222 225 229 233 238 242 246 250 253 257 261 263 263 262 261
189 179 181 189 196 202 201 195 195 205 217 223 221 215 214 217 221 223 222 223 224 220 214 215 219 221 223 224 228 232 236 241 246 249 253 256 260 262 262 262 260 259
181 177 186 197 204 207 202 197 202 209 215 219 218 214 212 213 215 221 225 226 227 224 220 218 218 222 225 227 230 235 240 244 248 252 255 258 259 260 261 261 259 255
180 187 202 208 208 209 207 205 208 211 212 217 216 212 212 213 212 215 220 222 223 224 224 221 220 223 227 229 234 238 241 245 250 254 256 257 257 257 258 259 257 253
186 196 208 211 208 209 211 210 210 211 212 213 212 210 211 212 209 210 213 216 220 225 228 227 224 226 229 231 233 236 241 248 252 253 254 254 254 255 255 256 254 253
194 197 206 210 211 212 213 212 211 211 210 210 209 208 208 209 207 205 206 212 219 225 230 231 228 229 233 233 233 236 243 251 254 253 253 252 253 255 257 257 254 253
196 197 204 209 213 214 214 213 212 210 208 208 207 204 205 209 209 206 207 211 215 220 227 231 232 233 234 237 240 244 249 253 255 254 253 252 253 255 256 259 258 257
193 198 205 208 212 215 214 212 210 207 206 205 204 203 203 206 208 210 213 213 212 215 220 226 232 235 237 241 245 246 249 252 252 252 255 255 254 256 258 260 261 260
194 201 208 210 213 215 213 210 208 205 204 201 200 201 202 204 209 214 219 219 217 218 218 220 228 234 239 246 248 245 246 249 248 248 252 255 255 259 261 260 262 262
196 204 210 213 214 213 210 209 208 206 203 201 200 198 197 203 209 213 219 223 223 222 220 221 227 233 241 251 253 246 244 248 249 246 248 254 257 259 260 261 263 263
200 206 211 215 215 213 209 209 210 209 202 198 197 193 193 200 203 205 215 223 221 217 218 222 228 235 245 256 259 250 246 249 250 246 247 254 256 257 259 261 262 262
204 207 212 216 215 214 213 211 214 213 201 191 191 191 192 198 199 203 215 221 215 212 218 227 234 239 249 261 264 255 250 251 249 246 248 253 256 259 262 262 263 263
206 209 213 216 215 216 216 216 218 215 202 192 193 195 195 196 198 205 214 214 211 214 223 235 243 244 251 263 266 258 252 250 246 244 246 251 257 263 265 263 262 257
207 211 214 216 217 218 218 216 217 213 203 192 191 193 195 192 194 208 214 207 208 221 232 243 251 251 253 262 265 260 254 248 242 242 247 251 259 264 265 266 263 257
208 211 215 217 220 220 218 215 212 207 200 191 188 193 197 192 196 209 213 204 206 224 238 249 259 264 264 264 264 264 257 245 237 243 251 256 263 266 265 266 264 261
207 211 216 220 222 221 218 213 207 199 195 193 192 197 201 200 201 205 202 187 189 229 262 270 274 277 272 265 262 264 259 242 233 243 255 262 267 268 267 266 263 261